Weather History for Valparaiso, FL

Change the Weather History Date:

Thursday, February 14, 2013

  Actual Average Record
Temperature  
Mean Temperature 48 °F -  
Max Temperature 56 °F 62 °F 62 °F (2014)
Min Temperature 37 °F 38 °F 34 °F (2014)
Degree Days  
Heating Degree Days 18    
Moisture  
Dew Point 40 °F    
Average Humidity 80    
Maximum Humidity 93    
Minimum Humidity 53    
Precipitation  
Precipitation 0.00 in - - ()
Sea Level Pressure  
Sea Level Pressure 30.09 in    
Wind  
Wind Speed 7 mph (North)    
Max Wind Speed 12 mph    
Max Gust Speed -    
Visibility 10 miles    
Events      
Averages and records for this station are not official NWS values.
T = Trace of Precipitation, MM = Missing Value Source: NWS Daily Summary

Daily Weather History Graph

Daily Weather History Graph

Search for Another Location

Airport:

Trip Planner

Search our weather history database for the weather conditions in past years. The results will help you decide how hot, cold, wet, or windy it might be!

Date:

Astronomy

Feb. 14, 2013 Rise Set
Actual Time 6:27 AM CST 5:33 PM CST
Civil Twilight 6:02 AM CST 5:58 PM CST
Nautical Twilight 5:34 AM CST 6:26 PM CST
Astronomical Twilight 5:06 AM CST 6:54 PM CST
Moon 8:52 AM CST (2/14) 10:10 PM CST (2/14)
Length of Visible Light 11h 55m
Length of Day
11h 06m
Waxing Crescent, 22% of the Moon is Illuminated
Feb 14
Waxing Crescent
Feb 17
First Quarter
Feb 25
Full
Mar 4
Last Quarter
Mar 11
New

Hourly Weather History & Observations

Time (CST) Temp. Windchill Dew Point Humidity Pressure Visibility Wind Dir Wind Speed Gust Speed Precip Events Conditions
12:55 AM 46.9 °F - 43.0 °F 86% 30.06 in 10.0 mi NNW 6.9 mph - N/A   Scattered Clouds
1:55 AM 45.7 °F 42.7 °F 42.1 °F 87% 30.06 in 10.0 mi North 5.8 mph - N/A   Scattered Clouds
2:56 AM 44.8 °F 41.6 °F 42.1 °F 90% 30.06 in 10.0 mi NNW 5.8 mph - N/A   Mostly Cloudy
3:55 AM 43.9 °F 38.8 °F 41.0 °F 90% 30.05 in 10.0 mi North 9.2 mph - N/A   Mostly Cloudy
4:55 AM 43.3 °F 38.1 °F 40.1 °F 88% 30.07 in 10.0 mi North 9.2 mph - N/A   Scattered Clouds
5:55 AM 42.8 °F 38.0 °F 39.6 °F 88% 30.08 in 10.0 mi North 8.1 mph - N/A   Mostly Cloudy
6:55 AM 42.6 °F 37.8 °F 39.6 °F 89% 30.11 in 10.0 mi North 8.1 mph - N/A   Mostly Cloudy
7:55 AM 42.8 °F 38.0 °F 39.6 °F 88% 30.14 in 10.0 mi North 8.1 mph - N/A   Mostly Cloudy
8:55 AM 44.6 °F 40.2 °F 39.7 °F 83% 30.16 in 10.0 mi NNE 8.1 mph - N/A   Mostly Cloudy
9:55 AM 45.5 °F 41.3 °F 39.6 °F 80% 30.16 in 10.0 mi NNE 8.1 mph - N/A   Mostly Cloudy
10:55 AM 46.9 °F - 39.6 °F 76% 30.12 in 10.0 mi North 11.5 mph - N/A   Mostly Cloudy
11:55 AM 47.8 °F - 38.8 °F 71% 30.14 in 10.0 mi NNE 8.1 mph - N/A   Mostly Cloudy
12:56 PM 49.1 °F - 39.9 °F 71% 30.10 in 10.0 mi North 6.9 mph - N/A   Mostly Cloudy
1:55 PM 52.2 °F - 40.1 °F 64% 30.08 in 10.0 mi North 11.5 mph - N/A   Mostly Cloudy
2:55 PM 55.0 °F - 39.4 °F 56% 30.06 in 10.0 mi NNE 5.8 mph - N/A   Scattered Clouds
3:55 PM 56.3 °F - 39.6 °F 53% 30.05 in 10.0 mi North 9.2 mph - N/A   Scattered Clouds
4:55 PM 55.9 °F - 39.7 °F 55% 30.06 in 10.0 mi North 6.9 mph - N/A   Partly Cloudy
5:55 PM 51.8 °F - 40.3 °F 65% 30.08 in 10.0 mi Calm Calm - N/A   Partly Cloudy
6:55 PM 47.8 °F - 41.9 °F 80% 30.09 in 10.0 mi Calm Calm - N/A   Partly Cloudy
7:55 PM 43.3 °F 40.7 °F 40.6 °F 90% 30.10 in 10.0 mi North 4.6 mph - N/A   Partly Cloudy
8:55 PM 42.3 °F - 39.4 °F 90% 30.11 in 10.0 mi NE 2.3 mph - N/A   Partly Cloudy
9:55 PM 40.6 °F - 37.9 °F 90% 30.12 in 10.0 mi Calm Calm - N/A   Clear
10:55 PM 39.0 °F - 36.7 °F 91% 30.10 in 10.0 mi Variable 2.3 mph - N/A   Clear
11:55 PM 37.8 °F - 36.0 °F 93% 30.09 in 10.0 mi North 2.3 mph - N/A   Clear